Showing default

FLOCK 4H 23, 66726

Orbit data source: Space-Track

FLOCK 4H 23, 66726 is a payload satellite owned by Planet (US) in SSO that was launched on Fri, 28 Nov 2025 UTC via an FALCON 9 launch vehicle from the Air Force Western Test Range (AFWTR). Payload-class satellites include a variety of spacecraft equipped with specific instruments for various scientific and technological missions. These include communications satellites like Starlink; space stations such as the ISS; scientific satellites like the Hubble; Earth observation satellites from companies like Planet Labs, Umbra, and HawkEye 360; GPS; miniature CubeSats for education and research; and military/defense satellites.

Loading next visibility...
Identifier
66726, 2025-276BN
Orbit
SSO
Country
Flag of USUS
Related business
Manufacturer
Planet
Mission
Operational Commercial Imaging
Bus & Motor
CUBESAT 3U, Unknown motor
Mass
5.7 kg wet, 5.7 kg dry
Launch date (UTC)
2025-11-28 (2 months ago)
Launch vehicle
FALCON 9
Launch site
Air Force Western Test Range (AFWTR)
Object type
Payload
Rocket body
Debris
Shape & HBR
Box + 2 Pan, 1.0 m
Radar Cross Section
0.072 m²

Expand to show TLE details & history
Last TLE update: 16 hours ago

TLE from 16 hours ago
0 FLOCK 4H 23
1 66726U 25276BN  26034.62519922  .00008738  00000-0  43371-3 0  9997
2 66726  97.4377 110.4719 0005935 102.0687 258.1213 15.17919160 10143
Epoch: 2026-02-03T15:00Z
TLE epoch observation values (Epoch: 2026-02-03T15:00:17.212Z)
Latitude
0.00004°
Longitude
111.59673°
Altitude
516.061 km
Speed
7.605 km/s
True Right ascension
07h 21m 53s
True Declination
0° 00' 00"
Sunlit
Object was in full shadow at epoch
Visualization orbit readout
Latitude
Unknown
Longitude
Unknown
Altitude
Unknown
Speed
Unknown
Apparent Right ascension
Unknown
Apparent Declination
Unknown
Sunlit
N/A
Visualization observer readout
Local Sidereal Time
08:42:05
Azimuth
Unknown
Elevation
Unknown
Doppler factor
Unknown
Orbital elements
Apogee altitude
513.188 km
Perigee altitude
505.013 km
Semi-major axis
6,887.237 km
Eccentricity
0.00059
Inclination
97.4377°
RAAN
110.4719°
Arg. of periapsis
102.0687°
True anomaly
258.05476°
Mean anomaly
258.1213°
Eccentric anomaly
258.08803°
Mean motion
3.79731 °/min
Orbital period
94.8 mins
BSTAR
0.00043371
Loading maneuver chart data...
Computing Atmospheric mass density...
Loading historical data...
Loading historical data...
Loading historical data...
Loading historical data...
Loading historical data...
Loading historical data...
Loading historical data...

Documentation

Showing up to 5 results
|